Vertical_Velocity
-3 -3 -2 -2 -1 -1 0 -1 -0 -1 -1 -1 -0 -1 -1 -2 -1 1 7 0 -2 -1 -1 -4 -5 0 -3 3 -6 -2 1 -0 -4 2 -0 -3 -1 -5 9 -3 -11 3 -7 1 -1
-0 -0 -2 -0 -0 -2 -2 -2 -1 0 -0 0 -1 -1 -2 -1 -1 16 -2 -3 -1 -1 -4 0 5 -2 5 1 -1 2 2 -2 1 2 1 -1 5 1 6 -4 -6 -3 20 -4 -1
0 -1 -0 2 1 -0 -1 0 0 1 0 -0 -1 -1 -1 -1 -0 -1 -3 -1 -1 -1 -4 -3 -2 -1 2 -2 -2 -0 -1 -0 -6 -0 2 -1 -3 1 4 -3 -3 -2 -4 34 4
1 1 2 -0 2 -1 -0 0 1 1 -0 -1 -0 -1 -0 1 9 -3 -1 -1 -1 1 -4 -0 0 4 1 1 4 1 -2 5 -4 -4 -1 -0 0 -5 3 -14 -1 -3 -4 8 1
1 2 1 -0 -0 -2 -1 -1 -1 1 1 -0 1 0 1 3 2 -2 -1 -1 -3 -2 0 -1 1 4 1 3 -0 5 -4 1 3 -1 -2 2 -3 -4 -7 -11 -4 -7 0 -2 -1
-0 -0 -1 -1 1 -1 -0 0 1 1 -0 -0 0 1 -3 8 0 -1 -0 -1 1 2 -1 2 4 -2 -1 2 3 2 -0 -5 -5 -6 -3 8 -5 15 -17 -2 2 6 0 -7 -4
0 0 -1 -2 -2 -2 -1 -1 -1 -1 -1 -1 0 -0 2 -0 -2 -1 -1 -1 -2 -1 3 1 -3 2 2 -1 7 -2 2 -2 -4 -7 1 -4 -4 -3 -3 5 2 1 3 3 4
-2 -1 -0 -0 -1 -0 0 -1 -1 -1 -1 -1 1 1 7 -1 -2 -2 -1 4 -3 2 -1 -3 -3 -3 -1 1 -6 4 6 0 -5 -0 4 -9 -9 -6 8 -6 -5 -6 -7 -3 -8
-0 -1 -0 -0 -0 -1 -1 -0 0 -0 -0 -0 -2 -2 7 -1 2 -4 -4 2 -6 -4 -5 -2 -3 0 4 2 -0 2 -1 1 -6 2 1 3 -5 -6 -7 -2 -5 -2 -2 1 4
-3 -1 -1 -2 -1 -1 -1 -1 -0 -1 0 -1 -4 2 0 8 -4 -3 -3 -3 0 -3 3 -0 0 1 3 4 0 0 -2 -4 1 -6 -2 -1 -6 -4 -6 2 -3 -2 -2 -7 23
0 0 0 -0 0 1 0 2 -2 -4 5 1 1 3 1 -2 -4 4 -5 0 -0 2 1 4 1 0 4 2 3 2 3 2 -6 -6 8 1 -1 -5 -6 0 -2 6 10 6 2
-1 -0 -1 -1 1 -1 -1 10 -2 -2 5 -1 -4 -3 -4 -3 5 1 -6 4 2 0 -0 4 -1 2 0 0 1 0 2 -6 -7 -2 3 -1 -8 -5 -1 5 2 2 1 2 -2
-0 -0 0 1 -1 0 4 -2 -0 -2 5 1 -3 -0 -1 -0 1 5 -3 2 3 1 0 3 -1 -1 1 -1 2 -3 4 -1 9 -4 -4 2 -3 1 5 -3 -1 -1 3 -3 0
-1 -1 -0 -2 -2 -3 -2 -1 -1 -1 4 7 4 1 7 -5 5 -3 -2 1 -1 1 1 1 2 -0 -0 0 5 1 1 2 1 3 -0 0 -5 -5 3 5 -1 2 0 2 -2
-1 -1 -1 -0 -3 4 -2 -0 -1 -3 4 1 4 -7 -5 7 3 4 -3 0 1 0 3 -11 -1 -1 0 3 2 -4 2 3 2 2 7 -5 5 -7 -1 5 4 4 5 -0 1
0 -0 0 0 -4 -1 -2 -1 -2 10 6 4 2 1 5 -3 2 2 7 1 3 3 1 -5 -6 3 2 -1 1 -0 1 -1 2 3 3 -5 -2 -4 2 4 2 1 3 4 5
0 1 0 1 3 -1 -0 -2 8 5 4 7 3 -1 1 -0 0 -2 -1 -4 0 -4 1 -5 2 2 -3 -2 -2 -4 -4 -4 -1 0 -7 2 -4 1 6 4 5 4 2 -1 -4
-1 0 -0 -1 -2 -1 -2 7 5 4 2 1 0 0 1 2 2 -2 -2 3 -1 -2 1 2 4 1 5 1 6 -1 3 3 2 2 -1 -4 -2 9 2 4 2 1 1 -2 -4
1 -3 2 -1 -1 -1 4 4 7 2 3 0 2 2 3 1 3 1 -1 1 2 2 4 1 0 -3 -0 0 3 1 -1 5 3 0 10 -4 -3 20 -2 -2 -4 -4 -3 -1 -4
-1 3 -1 -0 0 -2 5 1 -0 1 0 1 2 3 1 1 2 -1 -1 4 2 0 2 3 -2 -1 4 0 -3 1 2 -5 -2 1 -1 -3 -2 -4 -8 -2 -3 -6 1 4 14
-5 12 -3 -3 -1 4 3 3 0 1 1 3 1 1 1 1 2 -0 5 6 0 -1 1 1 3 -5 -2 0 4 -5 -2 -2 2 3 1 0 -8 5 5 4 3 -2 -2 -6 3
-1 4 -2 -0 8 1 0 1 0 1 -2 -1 -2 -0 1 0 0 -0 2 1 -1 2 1 5 3 0 -4 -2 2 2 -0 3 1 -5 -0 1 -32 1 2 3 4 -2 -3 7 2
6 1 -3 -3 3 1 4 2 0 0 1 -0 0 1 0 1 1 -0 -0 3 -2 -1 3 4 -2 -1 5 5 4 -0 0 1 0 1 -7 10 -22 -2 -5 -5 -6 2 4 -0 -1
4 4 -1 -8 4 -8 -1 2 1 -2 -0 -1 1 -1 -0 0 1 1 -1 4 -3 -2 -1 -1 1 2 -0 0 8 0 -2 -1 9 6 -7 -7 -13 -13 -8 -2 -6 -1 1 0 1
-4 1 0 2 -0 -1 -3 -1 0 1 -0 -1 3 0 1 0 -1 0 0 -2 3 1 -2 3 1 4 -2 0 2 3 2 -2 6 -5 16 -18 4 -10 -2 2 1 5 -1 -4 -7
4 4 -0 -0 -3 -1 -1 2 -1 3 2 3 2 1 0 0 2 -1 5 2 1 4 -0 -0 -3 2 -5 -2 3 1 -2 0 -0 -4 0 2 -9 4 -2 -5 -3 1 -2 -4 -7
-1 -1 0 -3 -0 4 2 1 1 -1 1 1 1 1 1 3 0 0 -0 -0 1 4 -0 3 1 0 -3 1 -1 -1 -1 -0 -2 -0 9 5 -1 -1 -5 -2 0 -4 0 -1 -5
Height
1512 1513 1515 1517 1518 1519 1520 1522 1523 1525 1527 1529 1530 1531 1532 1533 1534 1535 1536 1537 1536 1536 1536 1535 1537 1538 1538 1538 1538 1538 1541 1541 1534 1528 1524 1518 1519 1519 1519 1520 1521 1520 1519 1522 1522
1512 1512 1514 1516 1517 1519 1521 1523 1524 1526 1528 1529 1530 1531 1532 1533 1534 1537 1537 1536 1536 1535 1536 1537 1538 1537 1537 1537 1536 1536 1538 1531 1523 1523 1524 1522 1521 1520 1520 1519 1519 1517 1517 1515 1516
1512 1513 1514 1516 1518 1521 1522 1524 1525 1527 1528 1529 1531 1531 1532 1533 1535 1536 1536 1535 1535 1535 1535 1536 1537 1538 1536 1535 1534 1532 1534 1526 1524 1524 1524 1523 1522 1521 1519 1518 1516 1516 1514 1515 1514
1514 1515 1516 1518 1520 1522 1524 1525 1526 1527 1529 1530 1531 1532 1533 1534 1537 1536 1535 1535 1535 1535 1535 1537 1536 1536 1534 1532 1531 1533 1527 1525 1522 1523 1523 1522 1521 1519 1518 1513 1512 1513 1513 1512 1511
1517 1517 1518 1520 1521 1523 1524 1526 1527 1528 1530 1530 1531 1532 1533 1535 1537 1535 1535 1536 1535 1535 1536 1536 1535 1534 1533 1529 1529 1527 1525 1523 1521 1521 1521 1520 1517 1518 1512 1510 1509 1509 1508 1508 1509
1519 1520 1521 1522 1523 1524 1525 1527 1528 1529 1530 1531 1532 1532 1534 1535 1536 1536 1536 1536 1536 1537 1537 1536 1536 1536 1534 1531 1531 1525 1525 1523 1520 1516 1516 1515 1512 1514 1505 1505 1505 1505 1505 1505 1506
1521 1522 1523 1523 1524 1526 1526 1528 1528 1530 1531 1532 1532 1534 1534 1537 1536 1536 1536 1536 1536 1536 1537 1536 1535 1536 1534 1530 1527 1526 1525 1519 1511 1508 1510 1511 1510 1508 1501 1500 1500 1501 1501 1501 1501
1522 1523 1523 1525 1526 1526 1527 1528 1529 1531 1532 1533 1534 1534 1536 1535 1535 1536 1537 1538 1536 1536 1535 1534 1534 1534 1533 1530 1526 1523 1521 1524 1504 1505 1508 1512 1516 1504 1500 1500 1500 1499 1500 1498 1499
1523 1523 1524 1525 1526 1527 1528 1529 1530 1531 1532 1533 1534 1535 1537 1536 1537 1536 1536 1537 1535 1535 1534 1534 1533 1533 1531 1530 1528 1516 1526 1517 1509 1504 1507 1509 1508 1500 1499 1498 1496 1496 1497 1498 1499
1524 1524 1525 1526 1527 1528 1528 1530 1531 1532 1533 1534 1535 1538 1538 1538 1536 1535 1535 1535 1535 1534 1534 1533 1532 1531 1528 1528 1540 1530 1526 1519 1522 1509 1506 1507 1503 1494 1493 1493 1491 1490 1492 1494 1496
1525 1525 1526 1526 1527 1528 1529 1531 1535 1536 1536 1536 1537 1537 1537 1537 1536 1537 1536 1536 1535 1534 1532 1530 1534 1532 1528 1526 1526 1526 1527 1524 1514 1506 1506 1507 1502 1492 1486 1486 1485 1487 1491 1495 1494
1526 1526 1527 1527 1528 1529 1531 1532 1533 1536 1537 1536 1536 1537 1536 1536 1537 1537 1536 1537 1534 1533 1528 1531 1533 1527 1527 1525 1527 1526 1525 1520 1508 1505 1509 1506 1503 1490 1478 1483 1488 1492 1494 1497 1496
1526 1527 1527 1528 1530 1531 1532 1532 1532 1533 1534 1538 1537 1538 1538 1538 1537 1538 1538 1536 1533 1531 1526 1530 1524 1525 1527 1526 1526 1523 1522 1518 1521 1512 1507 1502 1496 1489 1491 1488 1491 1499 1503 1502 1503
1526 1527 1529 1530 1534 1533 1533 1533 1533 1533 1533 1539 1537 1538 1538 1538 1539 1538 1537 1538 1531 1530 1530 1528 1524 1526 1527 1527 1523 1529 1518 1521 1520 1522 1524 1506 1526 1499 1495 1494 1499 1504 1505 1507 1508
1527 1528 1530 1532 1533 1535 1534 1533 1533 1535 1538 1538 1538 1539 1538 1538 1539 1538 1537 1536 1535 1532 1534 1530 1524 1527 1531 1528 1526 1528 1521 1521 1518 1519 1519 1507 1520 1488 1485 1499 1503 1506 1508 1509 1510
1527 1529 1530 1532 1533 1533 1533 1533 1534 1537 1540 1538 1538 1538 1536 1537 1537 1538 1538 1538 1536 1533 1529 1528 1524 1525 1529 1526 1524 1523 1520 1515 1505 1511 1528 1500 1504 1495 1491 1502 1507 1509 1510 1511 1510
1528 1529 1531 1532 1533 1533 1533 1534 1535 1536 1534 1540 1540 1539 1538 1539 1537 1539 1539 1544 1547 1547 1534 1526 1521 1527 1530 1529 1522 1526 1529 1531 1517 1526 1523 1493 1505 1493 1503 1507 1512 1513 1512 1511 1510
1529 1530 1531 1532 1532 1533 1533 1534 1537 1533 1539 1541 1541 1539 1539 1543 1540 1540 1540 1543 1551 1550 1545 1538 1533 1529 1530 1534 1537 1532 1533 1540 1542 1526 1524 1499 1512 1501 1500 1507 1513 1515 1514 1512 1509
1531 1532 1533 1532 1532 1533 1535 1533 1545 1542 1546 1546 1540 1538 1540 1543 1545 1540 1547 1551 1558 1557 1558 1549 1534 1527 1531 1534 1537 1531 1537 1539 1543 1532 1533 1512 1492 1496 1494 1504 1508 1509 1507 1506 1505
1532 1535 1534 1533 1533 1534 1534 1541 1548 1551 1551 1546 1541 1544 1542 1545 1544 1543 1541 1559 1559 1561 1560 1554 1559 1534 1533 1535 1532 1537 1537 1547 1545 1547 1535 1505 1505 1503 1502 1499 1501 1504 1504 1501 1496
1534 1534 1535 1534 1534 1534 1534 1546 1553 1555 1553 1551 1548 1546 1549 1552 1551 1549 1549 1565 1564 1563 1561 1558 1559 1542 1538 1536 1539 1540 1542 1541 1541 1545 1547 1539 1513 1499 1509 1510 1508 1505 1502 1504 1503
1534 1533 1535 1534 1534 1533 1541 1548 1554 1556 1555 1555 1555 1554 1554 1555 1555 1553 1553 1559 1568 1567 1564 1563 1564 1560 1543 1536 1539 1542 1543 1542 1551 1547 1547 1558 1515 1507 1512 1512 1511 1508 1504 1501 1499
1537 1538 1537 1535 1534 1542 1551 1555 1557 1557 1559 1557 1558 1561 1560 1559 1561 1557 1558 1567 1568 1569 1569 1569 1562 1564 1540 1544 1541 1541 1542 1544 1545 1548 1546 1554 1522 1510 1515 1511 1506 1502 1499 1497 1495
1539 1538 1540 1539 1539 1540 1546 1551 1558 1561 1562 1562 1562 1562 1561 1560 1561 1561 1561 1565 1567 1569 1571 1572 1568 1563 1564 1554 1550 1548 1546 1545 1546 1550 1541 1534 1521 1517 1513 1507 1500 1497 1495 1493 1492
1539 1545 1545 1544 1545 1544 1546 1549 1555 1558 1562 1563 1564 1563 1565 1563 1560 1559 1563 1564 1564 1568 1569 1569 1565 1558 1554 1551 1550 1548 1544 1541 1542 1539 1541 1523 1520 1512 1504 1502 1498 1495 1492 1490 1488
1543 1546 1548 1549 1549 1547 1551 1551 1552 1559 1561 1561 1562 1564 1565 1566 1564 1566 1566 1566 1565 1564 1566 1565 1566 1561 1557 1550 1547 1541 1535 1532 1530 1527 1522 1513 1506 1507 1500 1497 1494 1493 1491 1489 1487
1546 1548 1547 1552 1551 1548 1552 1553 1556 1559 1563 1564 1565 1566 1564 1565 1566 1566 1567 1567 1566 1566 1567 1567 1564 1563 1557 1546 1546 1542 1522 1520 1520 1520 1517 1514 1507 1501 1500 1499 1496 1493 1491 1487 1483